Regional Weather Roundup
Issued by NWS

Home | Current Version | Previous Version | Text Only | Print | Product List | Glossary Off
Versions: 1 2 3 4 5 6 7 8 9 10 11 12 13 14 15 16 17 18 19 20 21 22 23 24 25 26 27 28 29 30 31 32 33 34 35 36 37 38 39 40 41 42 43 44 45 46 47 48 49 50

221
ASUS43 KMPX 301901
RWRMN
WEATHER ROUNDUP FOR MINNESOTA
NATIONAL WEATHER SERVICE TWIN CITIES/CHANHASSEN MN
200 PM CDT SUN APR 30 2017


NOTE: "FAIR" INDICATES FEW OR NO CLOUDS BELOW 12,000 FEET WITH NO
SIGNIFICANT WEATHER AND/OR OBSTRUCTIONS TO VISIBILITY. N/A MEANS
CURRENT SKY AND/OR WEATHER CONDITIONS ARE NOT AVAILABLE.

MNZ060>063-068>070-302000-
   Twin Cities Metro

CITY           SKY/WX    TMP DP  RH WIND       PRES   REMARKS
TWIN CITIES    CLOUDY    45  34  65 NE22G30   29.92F
ST PAUL        CLOUDY    45  35  68 NE18G28   29.93F
CRYSTAL        CLOUDY    43  34  70 N12G23    29.93F
BLAINE         CLOUDY    45  37  76 N18G25    29.93F
LAKEVILLE      PTSUNNY   43  36  75 NE16G26   29.90F
EDEN PRAIRIE   CLOUDY    45  36  70 NE17G24   29.90F
SOUTH ST PAUL  CLOUDY    45  36  70 NE10G21   29.92F
LAKE ELMO      DRIZZLE   45  36  70 NE13G22   29.92F
$$
MNZ001>005-007-008-013>017-022>024-027-028-302000-
   Northwest Minnesota

CITY           SKY/WX    TMP DP  RH WIND       PRES   REMARKS
BEMIDJI        MOSUNNY   56  22  26 E12G20    30.01F
HALLOCK        SUNNY     61  19  20 S5        30.01F
ROSEAU         SUNNY     59  27  29 E14       30.04F
WARROAD        SUNNY     54  34  47 NE10      30.07F
CROOKSTON      SUNNY     59  23  25 E12G18    30.00F
FOSSTON        SUNNY     59  19  21 E12G20    29.99F
DETROIT LAKES  MOSUNNY   55  21  26 E15       29.99F
MOORHEAD       PTSUNNY   57  18  21 E10G20    29.97F
PARK RAPIDS    PTSUNNY   54  19  25 E15G22    30.00F
MAHNOMEN       FAIR      57  24  28 E15G22    29.97F
$$
MNZ006-009>011-018-025>026-302000-
   North Central Minnesota

CITY           SKY/WX    TMP DP  RH WIND       PRES   REMARKS
BAUDETTE       SUNNY     57  19  22 E13G18    30.07F
FLAG ISLAND    SUNNY     52  21  30 S6        30.07F
INTL FALLS     SUNNY     54  22  28 E8        30.09F
WASKISH        PTSUNNY   57  25  28 NE12G21   30.03F
BIG FORK       CLOUDY    55  21  26 E9        30.05F
LONGVILLE      CLOUDY    52  21  30 E9G17     30.03F
GRAND RAPIDS   PTSUNNY   51  22  31 E13       30.06F
CRANE LAKE     CLOUDY    52  18  25 NE7       30.11F
ORR            PTSUNNY   55  14  19 E6        30.04F
COOK           CLOUDY    52  21  30 E9        30.07F
WALKER         FAIR      50  24  36 E10G16    30.03F
$$
MNZ012-019>021-037-302000-
   Northeast Minnesota

CITY           SKY/WX    TMP DP  RH WIND       PRES   REMARKS
DULUTH         CLOUDY    48  28  46 E22       30.05F
ELY            CLOUDY    50  16  25 NE7       30.08F
HIBBING        CLOUDY    51  22  31 E13G20    30.05F
EVELETH        CLOUDY    53  10  18 E12G18    30.06F
DULUTH HARBOR  CLOUDY    39  36  87 NE24G30   30.09F
TWO HARBORS    CLOUDY    48  32  53 NE12G20   30.07F
SILVER BAY     CLOUDY    45  28  53 E12G20    30.09F
GRAND MARAIS     N/A     42  32  67 NE10      30.15F
G MARAIS ARPRT MOSUNNY   45  19  36 E13       30.13S
$$
MNZ029>031-032-039>041-046>048-054>057-064-302000-
   West Central Minnesota

CITY           SKY/WX    TMP DP  RH WIND       PRES   REMARKS
FERGUS FALLS   CLOUDY    54  25  32 E17G24    29.95F
WHEATON        CLOUDY    54  19  26 E18       29.95F
MORRIS         CLOUDY    52  27  37 E16G23    29.93F
ALEXANDRIA     CLOUDY    50  27  40 E20       29.96F
ELBOW LAKE     FAIR      51  24  34 NE13G18   29.96F
WADENA         CLOUDY    52  25  35 E13       29.98F
GLENWOOD       CLOUDY    50  28  43 E20G26    29.94F
APPLETON       CLOUDY    52  27  37 E18       29.91F
BENSON         CLOUDY    52  21  30 E17G23    29.93F
ORTONVILLE     CLOUDY    50  25  37 NE14      29.91F
MADISON        CLOUDY    52  28  40 NE20      29.90F
WILLMAR        FAIR      45  37  76 NE23G30   29.91F
$$
MNZ033>034-036-042>043-049>051-058-059-302000-
   Central Minnesota

CITY           SKY/WX    TMP DP  RH WIND       PRES   REMARKS
ST CLOUD       CLOUDY    47  29  49 NE14G26   29.95F
SAUK CENTRE    FAIR      47  29  50 NE18      29.96F
PAYNESVILLE    CLOUDY    45  32  61 NE20      29.93F
AITKIN         CLOUDY    54  18  24 NE13      30.00F
PINE RIVER     CLOUDY    52  27  37 E13       30.05F
BRAINERD       CLOUDY    49  23  36 E10G22    30.01F
STAPLES        CLOUDY    48  21  34 E8G18     30.00F
LONG PRAIRIE   CLOUDY    45  27  49 N13G21    29.97F
LITTLE FALLS   CLOUDY    46  27  46 E10G18    29.99F
LITCHFIELD     CLOUDY    45  36  70 NE20G25   29.91F
BUFFALO        DRIZZLE   42  35  74 N16G24    29.95F
MAPLE LAKE     CLOUDY    44  36  74 NE16      29.95F
HUTCHINSON     CLOUDY    44  36  73 NE20G29   29.91F
$$
MNZ037-044-045-052-053-302000-
   East Central Minnesota

CITY           SKY/WX    TMP DP  RH WIND       PRES   REMARKS
PRINCETON      CLOUDY    46  30  53 NE13G23   29.97F
MORA           LGT RAIN  45  32  61 NE12G18   30.01F
CAMBRIDGE      LGT RAIN  46  34  61 NE9       29.95F
RUSH CITY      LGT RAIN  45  29  52 NE10G26   29.98F
MOOSE LAKE     CLOUDY    45  28  53 NE10G20   30.03F
HINCKLEY       DRIZZLE   43  34  70 N20G25    30.01F
CLOQUET        CLOUDY    46  27  46 E9        30.05F
MCGREGOR       MOSUNNY   52  27  37 NE18G25   30.02F
$$
MNZ071>073-080-081-089-090-097-098-302000-
   Southwest Minnesota

CITY           SKY/WX    TMP DP  RH WIND       PRES   REMARKS
MONTEVIDEO     DRIZZLE   43  37  81 E23       29.90F
GRANITE FALLS  CLOUDY    45  38  76 NE21G29   29.90F
CANBY          CLOUDY    46  31  55 NE21G28   29.91F
MARSHALL       LGT RAIN  42  36  79 NE23G29   29.85F
REDWOOD FALLS  CLOUDY    43  33  68 NE15G29   29.87F
OLIVIA         CLOUDY    43  36  75 NE24G32   29.87F
PIPESTONE      LGT RAIN  39  36  87 NE18G28   29.80F
WINDOM         CLOUDY    39  37  93 NE21G26   29.82S
WORTHINGTON    CLOUDY    37  35  92 NE30G37   29.78F
JACKSON        CLOUDY    36  36 100 NE28G36   29.79F FOG
TRACY          LGT RAIN  41  38  91 NE21G29   29.85F
SLAYTON        CLOUDY    37  36  93 NE20G26   29.83F
$$
MNZ065>067-074>077-082>085-091>093-302000-
   South Central Minnesota

CITY           SKY/WX    TMP DP  RH WIND       PRES   REMARKS
MANKATO        LGT RAIN  41  36  82 NE21G29   29.83F
NEW ULM        LGT RAIN  39  37  93 NE17G28   29.84F
ST JAMES       CLOUDY    39  37  93 N18G26    29.84F
FAIRMONT       CLOUDY    40  38  93 NE20      29.79F
GLENCOE        CLOUDY    42  37  82 NE10G21   29.90F
FARIBAULT      CLOUDY    43  36  75 N13G20    29.88S
OWATONNA       CLOUDY    43  34  70 NE14G24   29.85F
WASECA         CLOUDY    41  36  81 NE17G25   29.84F
ALBERT LEA     CLOUDY    43  34  70 NE23      29.78F
$$
MNZ078>079-086>088-094>096-302000-
   Southeast Minnesota

CITY           SKY/WX    TMP DP  RH WIND       PRES   REMARKS
ROCHESTER      CLOUDY    43  36  76 NE22      29.84F
RED WING       CLOUDY    46  32  57 E8G20     29.89F
STANTON        CLOUDY    45  35  67 NE17G23   29.88S
DODGE CENTER   CLOUDY    43  36  75 E20G25    29.84F
WINONA         CLOUDY    46  37  71 E8        29.89F
AUSTIN         CLOUDY    45  36  70 NE21G28   29.79F
PRESTON        CLOUDY    42  35  76 NE10G17   29.84F
$$
ABBREVIATIONS USED IN REMARKS
   TC - TEMPERATURES IN CELSIUS
  WCI - WIND CHILL INDEX
   HX - HEAT INDEX
  VSB - VISIBILITY
$$




USA.gov is the U.S. government's official web portal to all federal, state and local government web resources and services.